Miscellaneous Local Product
Issued by NWS North Platte, NE

Home | Current Version | Previous Version | Graphics & Text | Print | Product List | Glossary On
Versions: 1 2 3 4 5 6 7 8 9 10 11 12 13 14 15 16 17 18 19 20 21 22 23 24 25 26 27 28 29 30 31 32 33 34 35 36 37 38 39 40 41 42 43 44 45 46 47 48 49 50
000
AXUS43 KLBF 012010
MISLBF


WESTERN AND NORTH CENTRAL NEBRASKA HOURLY WEATHER ROUNDUP
NATIONAL WEATHER SERVICE NORTH PLATTE NE
200 PM CST SUN MAR 01 2015

***STATIONS NOT REPORTING VARIABLES SUCH AS SKY/WEATHER OR
PRESSURE ARE PROVIDED BY THE NEBRASKA DEPARTMENT OF
ROADS...RAWS...AND APRS NETWORKS...AND ARE NOT UNDER
NATIONAL WEATHER SERVICE QUALITY CONTROL***

...OBSERVATIONS IN AND NEAR THE EASTERN PANHANDLE OF NEBRASKA...

CITY           SKY/WX    TMP DP  RH WIND       PRES   REMARKS
PINE RIDGE     MOSUNNY   35   8  32 NW15G24   30.25F WCI  25
CHADRON        SUNNY     34  11  38 NW18      30.28F WCI  23
ALLIANCE       SUNNY     32   8  36 NW9       30.24F WCI  24
SIDNEY         MOSUNNY   32  13  45 NW8G20    30.25F WCI  25
WHITECLAY        N/A     32   9  37 W12         N/A  WCI  23
CRESCENT LAKE    N/A     32  11  41 NW8G18      N/A  WCI  25
LISCO            N/A     35   7  31 SW8         N/A  WCI  28
BIG SPRINGS      N/A     37  17  44 N6          N/A  WCI  32
LEWELLEN         N/A     35   9  33 W6          N/A  WCI  30
$$

...OBSERVATIONS IN NORTH CENTRAL NEBRASKA...

CITY           SKY/WX    TMP DP  RH WIND       PRES   REMARKS
VALENTINE      CLOUDY    33  10  38 NW15      30.29F WCI  23
THEDFORD       SUNNY     37  14  39 W10G18    30.29S WCI  29
AINSWORTH      MOSUNNY   33   9  36 W16       30.29F WCI  23
O`NEILL        SUNNY     37   9  31 NW21G28   30.30F WCI  26
ORD            SUNNY     36  12  37 NW8       30.32F WCI  30
BROKEN BOW     SUNNY     35  14  42 VRB3      30.30F
BROWNLEE         N/A     34  10  36 NW16        N/A  WCI  24
SPRINGVIEW       N/A     34  12  40 W12G22      N/A  WCI  25
BREWSTER         N/A     36  14  40 W13         N/A  WCI  28
ROSE             N/A     38  18  44 S14         N/A  WCI  29
NEWPORT          N/A     35  12  37 W16         N/A  WCI  25
COMSTOCK         N/A     39  14  35 W10         N/A  WCI  32
CHAMBERS         N/A     37  15  41 W6G20       N/A  WCI  32
EWING            N/A     36  15  42 W13G20      N/A  WCI  27
$$

...OBSERVATIONS IN SOUTHWEST NEBRASKA AND FAR NORTHEAST COLORADO...

CITY           SKY/WX    TMP DP  RH WIND       PRES   REMARKS
WRAY           FAIR      37  13  37 N12       30.28S WCI  29
IMPERIAL         N/A     35  11  36 N8        30.29F WCI  29
OGALLALA       MOSUNNY   35  15  42 NW10      30.28F WCI  28
NORTH PLATTE   MOSUNNY   36  11  35 VRB5      30.30F WCI  32
MCCOOK         SUNNY     39  12  33 N8        30.31S WCI  33
LEXINGTON      SUNNY     37  11  33 N6        30.31F WCI  33
PAXTON           N/A     35  18  50 W5          N/A  WCI  31
BRADY            N/A     38  15  38 S3          N/A
GOTHENBURG       N/A     35  11  37 NW8         N/A  WCI  28
CALLAWAY         N/A     35  16  46 NW9         N/A  WCI  28
$$

...NORTH PLATTE AREA...

CITY           SKY/WX    TMP DP  RH WIND       PRES   REMARKS
AIRPORT        MOSUNNY   36  11  35 VRB5      30.30F WCI  32
DOWNTOWN         N/A     35  14  42 N3          N/A
$$

...SOME WEATHER OBSERVATIONS FROM AROUND THE REGION...

CITY           SKY/WX    TMP DP  RH WIND       PRES   REMARKS
DENVER         CLOUDY    24  15  68 NW5       30.22S WCI  18
LARAMIE        PTSUNNY   18  11  74 VRB3      30.10F
CHEYENNE       MOSUNNY   25  12  58 VRB6      30.15F WCI  18
SCOTTSBLUFF    PTSUNNY   33  12  41 N6        30.26F WCI  28
RAPID CITY     SUNNY     28  12  51 N24       30.26F WCI  14
PIERRE         PTSUNNY   33   9  36 NW25      30.29F WCI  20
WINNER         PTSUNNY   36   4  26 NW22G29   30.29F WCI  25
SIOUX FALLS    MOSUNNY   32  12  43 W16G26    30.28F WCI  21
OMAHA          MOSUNNY   36  16  44 VRB3      30.36F
GRAND ISLAND   SUNNY     37  11  34 NW7       30.34F WCI  32
KANSAS CITY    CLOUDY    31  22  69 NW7       30.37F WCI  24
WICHITA        PTSUNNY   30  19  63 N12       30.39S WCI  20
HAYS           CLOUDY    30  14  51 N7        30.36F WCI  23
LIBERAL        CLOUDY    28  21  74 NE6       30.34R WCI  22
GOODLAND       MOSUNNY   33  18  53 N10       30.27F WCI  25
$$



USA.gov is the U.S. government's official web portal to all federal, state and local government web resources and services.